Flag for Mexico Weather past 2 weeks in Mexico City, Federal District, Mexico

Now
61 °F

Mostly cloudy.


Feels Like: 61 °F
Forecast: 56 / 72 °F
Wind: 8 mph from Northeast

Location: Mexico City / Licenci

Current Time: Sep 16, 2014 at 11:28:22 AM

Latest Report: Sep 16, 2014 at 10:45 AM


Visibility: 12 mi

Pressure: 30.39 "Hg

Humidity: 68%

Dew point: 50 °F

Location of Mexico CityLocation

Historic Weather in Mexico City — Graph

°F

Mexico City temperature yesterday

Maximum temperature yesterday: 72 °F (at 3:45 PM)
Minimum temperature yesterday: 55 °F (at 5:51 AM)
Average temperature yesterday: 63 °F

Past Weeks' High & Low Weather Summary

 TemperatureHumidityPressure
High77 °F (Sep 11, 3:50 PM)100% (Sep 3, 3:24 PM)30.41 "Hg (Sep 3, 3:24 PM)
Low34 °F (Sep 3, 3:24 PM)31% (Sep 6, 4:45 PM)29.56 "Hg (Sep 11, 6:46 AM)
Average63 °F70%30.15 "Hg
* Reported Sep 1 10:20 AM — Sep 16 10:19 AM, Mexico City, Weather by CustomWeather, © 2014

Note: Actual official high and low records may vary slightly from our data, if they occured in-between our weather recording intervals... More about our weather records

Advertising

Mexico City weather history for previous 24 hours

 ConditionsComfort  
Time TempWeatherWind HumidityBarometerVisibility
10:19 AM
Sep 16
61 °FMostly cloudy.3 mph68%30.39 "Hg12 mi
9:47 AM61 °FBroken clouds.7 mph68%29.93 "Hg12 mi
9:20 AM61 °FBroken clouds.7 mph63%30.38 "Hg10 mi
8:45 AM61 °FBroken clouds.9 mph68%30.37 "Hg10 mi
8:20 AM59 °FPartly cloudy.7 mph72%30.37 "Hg10 mi
7:45 AM59 °FPartly cloudy.3 mph72%30.36 "Hg12 mi
7:23 AM59 °FMostly cloudy.6 mph72%30.37 "Hg12 mi
5:50 AM59 °FPassing clouds.7 mph72%30.35 "Hg12 mi
4:46 AM59 °FPassing clouds.9 mph72%30.33 "Hg10 mi
3:52 AM59 °FPassing clouds.7 mph77%29.83 "Hg8 mi
2:54 AM59 °FPassing clouds.8 mph72%30.36 "Hg7 mi
1:54 AM61 °FPassing clouds.5 mph68%30.36 "Hg7 mi
12:53 AM61 °FPartly cloudy.7 mph68%29.88 "Hg8 mi
11:48 PM
Sep 15
61 °FPassing clouds.7 mph68%30.38 "Hg10 mi
10:49 PM63 °FPassing clouds.5 mph64%30.38 "Hg14 mi
9:48 PM63 °FPassing clouds.8 mph64%29.89 "Hg14 mi
8:45 PM64 °FPassing clouds.12 mph60%30.32 "Hg12 mi
7:45 PM68 °FScattered clouds.15 mph49%30.30 "Hg12 mi
6:45 PM70 °FBroken clouds.16 mph46%29.79 "Hg12 mi
5:45 PM70 °FBroken clouds.14 mph46%30.27 "Hg12 mi
4:45 PM72 °FBroken clouds.14 mph47%30.27 "Hg12 mi
3:45 PM72 °FPartly sunny.10 mph47%29.80 "Hg10 mi
2:45 PM70 °FBroken clouds.9 mph53%30.32 "Hg8 mi
12:55 PM66 °FBroken clouds.3 mph56%29.90 "Hg8 mi
11:47 AM64 °FPartly sunny.8 mph60%30.40 "Hg10 mi
Weather by CustomWeather, © 2014

See weather overviewHow to use our weather pages